Weather observations for the past three days for
Iowa City Municipal Airport
Imperial (Metric)
Date Time (cdt) Wind (mph) Vis. (mi.) Weather Sky Cond. Temperature (ºF) Relative Humidity Wind Chill (°F) Heat Index (°F) Pressure Precipitation (in)
Air Dwpt 6 hour altimeter (in) sea level (mb) 1 hr 3 hr 6 hr
Max. Min.
24 01:52 Calm 8.00 A Few Clouds FEW050 68 64 87% 30.08 1017.9
24 00:52 Calm 7.00 Fair CLR 68 64 72 68 87% 30.09 1018.3
23 23:52 Calm 8.00 Fair CLR 68 64.9 90% 30.09 1018.4
23 22:52 SW 3 9.00 Mostly Cloudy BKN065 BKN080 69.1 64.9 87% 30.09 1018.6
23 21:52 Calm 9.00 Mostly Cloudy BKN090 70 66 87% 30.09 1018.6
23 20:52 S 5 10.00 NULL NULL 70 66 87% 30.06 1017.4
23 19:52 Calm 10.00 Fair CLR 72 64.9 79% 30.05 1017.4
23 18:52 NE 3 8.00 Fair CLR 72 66 84.9 68 82% 30.05 1017.3 0.35
23 17:52 Calm 7.00 Partly Cloudy FEW030 SCT100 70 64.9 84% 30.07 1017.8 0.07
23 16:52 NE 12 G 22 4.00 Thunderstorm Light Rain Fog/Mist NULL 69.1 64.9 87% 30.05 1017.3 0.28
23 15:52 W 12 10.00 Fair CLR 84.9 64.9 51% 87 30.02 1016.2
23 14:52 SW 10 10.00 A Few Clouds FEW037 84 66.9 57% 87 30 1015.6
23 13:52 W 10 10.00 Partly Cloudy FEW038 SCT060 84 66 55% 86 30.03 1016.4
23 12:52 W 9 10.00 A Few Clouds FEW034 84 66 84 66 55% 86 30.04 1016.7
23 11:52 SW 12 10.00 Fair CLR 82.9 68 61% 86 30.05 1017.0
23 10:52 W 9 10.00 Fair CLR 81 66.9 62% 83 30.05 1017.0
23 09:52 W 7 10.00 Fair CLR 75.9 66 72% 77 30.05 1017.0
23 08:52 W 5 10.00 Partly Cloudy SCT060 73 64.9 76% 30.04 1016.9
23 07:52 Calm 10.00 Fair CLR 69.1 64 84% 30.04 1016.8
23 06:52 Calm 10.00 Fair CLR 66 62.1 68 64 87% 30.03 1016.5
23 05:52 Calm 10.00 Fair CLR 66 62.1 87% 30.02 1016.1
23 04:52 Calm 9.00 Fair CLR 64.9 62.1 90% 30.01 1015.8
23 03:52 Calm 10.00 Fair CLR 64.9 62.1 90% 30.01 1015.9
23 02:52 W 3 10.00 Fair CLR 66 63 90% 30.02 1016.2
23 01:52 Calm 10.00 Fair CLR 66.9 62.1 84% 30.02 1016.1
23 00:52 Calm 10.00 Fair CLR 66.9 62.1 82.9 66.9 84% 30.03 1016.4
22 23:52 Calm 10.00 Fair CLR 70 63 79% 30.02 1016.1
22 22:52 Calm 10.00 Fair CLR 70 64 82% 30.02 1016.2
22 21:52 SE 3 10.00 Fair CLR 72 64 76% 30.01 1015.9
22 20:52 Calm 10.00 Fair CLR 77 63 62% 79 30 1015.5
22 19:52 NE 5 10.00 Fair CLR 78.1 64 62% 80 30 1015.5
22 18:52 N 3 10.00 Partly Cloudy SCT044 82 61 84.9 80.1 49% 83 29.99 1015.1
22 17:52 NW 8 10.00 Mostly Cloudy BKN045 82.9 62.1 49% 84 29.99 1015.1
22 16:52 SW 7 10.00 Partly Cloudy SCT049 82.9 62.1 49% 84 30 1015.3
22 15:52 S 3 10.00 Mostly Cloudy BKN046 82 60.1 47% 82 30.02 1015.9
22 14:52 SW 5 10.00 Fair CLR 82 61 49% 83 30.03 1016.5
22 13:52 SE 3 10.00 A Few Clouds FEW045 82 60.1 47% 82 30.05 1017.0
22 12:52 S 3 10.00 Mostly Cloudy BKN033 81 64.9 82 64.9 58% 83 30.05 1017.2
22 11:52 SW 5 10.00 Fair CLR 79 64 60% 81 30.07 1017.7
22 10:52 Calm 10.00 Fair CLR 78.1 64.9 64% 80 30.08 1018.1
22 09:52 Calm 10.00 Fair CLR 75.9 64 67% 78 30.08 1018.3
22 08:52 Calm 10.00 Fair CLR 72 64.9 79% 30.08 1018.2
22 07:52 Calm 10.00 Fair CLR 70 64 82% 30.07 1017.8
22 06:52 Calm 10.00 Fair CLR 64.9 62.1 66 62.1 90% 30.07 1017.9
22 05:52 W 6 9.00 Fair CLR 62.1 59 90% 30.07 1018.0
22 04:52 Calm 10.00 Fair CLR 64 60.1 87% 30.07 1017.8
22 03:52 Calm 10.00 Fair CLR 63 59 87% 30.07 1017.8
22 02:52 Calm 10.00 Fair CLR 64 60.1 87% 30.07 1018.0
22 01:52 Calm 10.00 Fair CLR 64.9 61 87% 30.08 1018.3
21 23:52 N 3 10.00 Fair CLR 69.1 62.1 78% 30.1 1019.0
21 22:52 W 5 10.00 Fair CLR 66.9 62.1 84% 30.1 1019.0
21 21:52 S 5 10.00 Fair CLR 70 61 73% 30.11 1019.0
21 20:52 N 5 10.00 Fair CLR 73 60.1 64% 30.09 1018.4
21 19:52 N 3 10.00 Fair CLR 75 60.1 60% 77 30.09 1018.3
21 18:52 N 7 10.00 A Few Clouds FEW044 FEW110 77 64 82.9 77 64% 79 30.08 1018.1
21 17:52 SW 5 10.00 Mostly Cloudy BKN110 77 64 64% 79 30.07 1018.0
21 16:52 SW 7 10.00 Mostly Cloudy SCT080 BKN110 78.1 63 60% 80 30.08 1018.4
21 15:52 SW 9 10.00 Mostly Cloudy FEW045 SCT060 BKN090 80.1 63 56% 81 30.1 1018.8
21 14:52 NW 3 10.00 Mostly Cloudy BKN045 80.1 57.9 47% 81 30.12 1019.5
21 13:52 Vrbl 6 10.00 A Few Clouds FEW090 81 60.1 49% 82 30.13 1019.9
21 12:52 N 7 10.00 Overcast FEW032 SCT075 OVC090 78.1 61 80.1 66 56% 80 30.15 1020.5
21 11:52 Calm 10.00 Partly Cloudy FEW028 SCT065 79 61 54% 80 30.15 1020.7
21 10:52 N 5 10.00 Partly Cloudy FEW070 SCT085 77 61 58% 79 30.16 1021.0
21 09:52 Calm 10.00 Mostly Cloudy BKN075 75 60.1 60% 77 30.16 1020.9
21 08:52 W 3 10.00 Fair CLR 70 63 79% 30.15 1020.7
21 07:52 Calm 10.00 Fair CLR 68 62.1 81% 30.16 1020.8
21 06:52 NW 3 10.00 Fair CLR 66 62.1 66 62.1 87% 30.15 1020.8
21 05:52 N 3 10.00 Fair CLR 64.9 61 87% 30.15 1020.5
21 04:52 W 3 10.00 Fair CLR 62.1 59 90% 30.14 1020.3
21 03:52 W 3 10.00 Mostly Cloudy BKN070 63 59 87% 30.14 1020.2
21 02:52 SW 3 10.00 A Few Clouds FEW075 62.1 59 90% 30.14 1020.3
Date Time (cdt) Wind (mph) Vis. (mi.) Weather Sky Cond. Air Dwpt Max. Min. Relative Humidity Wind Chill (°F) Heat Index (°F) altimeter (in) sea level (mb) 1 hr 3 hr 6 hr
6 hour
Temperature (ºF) Pressure Precipitation (in)